CAPE
0 0 0 0 0 0 0 0 0 0 0 0 0 0 12 122 28 50 266 739 684 552
0 0 0 0 0 0 0 0 0 0 0 0 0 0 0 51 54 96 238 362 981 816
0 0 0 0 0 0 0 0 0 0 0 0 0 0 0 16 93 188 263 590 976 1124
0 0 0 0 0 0 0 0 0 0 0 0 0 0 26 226 341 250 231 481 370 432
0 0 0 0 0 0 0 0 0 2 0 0 0 0 309 310 185 33 33 34 20 2
0 0 0 0 0 0 0 0 2 2 0 0 0 18 264 49 0 1 2 2 1 2
0 0 0 0 1 0 0 0 4 0 0 0 1 3 3 2 1 3 4 4 4 4
0 0 0 0 1 1 3 5 2 0 0 2 3 2 3 2 3 4 4 4 3 2
6 0 1 1 1 1 0 3 0 3 3 2 0 0 1 4 3 3 3 2 4 2
5 3 4 2 1 1 5 0 5 3 1 0 1 1 1 2 3 4 5 4 4 0
3 4 3 1 1 3 2 1 2 1 1 1 1 1 2 3 3 3 2 2 1 0
16 8 12 11 2 0 0 1 1 2 2 1 1 1 2 2 2 1 0 0 0 0
1 1 0 1 18 0 0 1 3 3 2 2 1 1 1 1 0 0 0 0 0 0
10 1 0 0 0 1 1 3 3 2 2 2 1 0 0 0 0 0 0 0 0 0
CIN
0 0 0 0 0 0 0 0 0 0 0 0 0 0 -143 -116 -246 -203 -54 -1 -24 -42
0 0 0 0 0 0 0 0 0 0 0 0 0 0 0 -212 -198 -150 -73 -24 0 -8
0 0 0 0 0 0 0 0 0 0 0 0 0 0 0 -264 -136 -61 -38 -7 -2 -1
0 0 0 0 0 0 0 0 0 0 0 0 0 0 -216 -38 -18 -40 -60 -40 -74 -57
0 0 0 0 0 0 0 0 0 -1 0 0 0 0 -2 -12 -52 -227 -237 -256 -302 -8
0 0 0 0 0 0 0 0 -1 -1 0 0 0 -93 -1 -60 0 0 0 0 0 0
0 0 0 0 -1 0 -1 -1 -1 0 0 0 0 0 -17 0 0 0 0 0 0 0
0 -1 -1 -1 0 -1 -1 0 -1 0 -1 0 0 0 0 0 0 0 0 0 0 0
-1 -1 -2 -1 -1 -1 -1 -1 0 0 0 0 0 0 0 0 0 0 0 0 0 0
-1 -1 -1 -1 -1 -3 -1 0 0 0 0 0 0 0 0 0 0 0 0 0 0 0
-1 -1 -1 -1 -3 -2 -1 0 0 0 0 0 0 0 0 0 0 0 0 0 0 0
0 0 -1 0 -4 -1 0 0 0 0 0 0 0 0 0 0 0 0 0 0 0 0
-1 0 0 -2 0 0 0 0 0 0 0 0 0 0 0 0 0 0 0 0 0 0
-1 0 0 0 0 0 0 0 0 0 0 0 0 0 0 0 0 0 0 0 0 0
Wind_Speed
31 33 35 37 39 41 43 43 42 40 38 38 39 40 38 35 34 35 36 37 33 32
33 35 38 39 41 42 43 43 42 40 38 39 38 38 39 34 35 38 38 36 32 29
37 37 39 42 44 45 46 45 43 40 38 39 37 37 37 36 34 36 39 36 32 29
38 39 41 43 44 46 45 42 39 36 38 37 35 36 36 34 35 35 35 31 29 28
38 41 42 43 45 45 43 39 36 33 35 33 34 33 31 31 32 34 31 27 24 24
41 42 41 44 44 42 40 37 34 31 33 32 31 29 28 30 30 27 24 22 20 21
43 40 40 42 41 40 37 36 33 32 32 31 29 26 24 23 23 20 18 17 18 19
41 36 40 42 41 40 35 32 33 33 31 28 23 24 21 20 18 15 14 14 15 16
39 38 43 44 40 37 31 31 32 29 26 21 23 23 17 14 12 12 11 11 12 15
41 43 44 40 35 31 29 31 30 23 19 20 20 16 12 10 10 9 8 9 11 13
42 39 37 32 30 28 30 28 26 16 15 16 15 12 9 8 8 8 8 9 11 13
33 32 31 25 27 29 26 23 12 12 13 12 11 8 7 7 7 7 8 11 12 14
22 27 27 25 22 20 18 8 9 10 11 10 7 6 6 7 9 10 11 12 13 15
12 25 24 22 19 14 5 4 7 9 9 8 6 6 6 7 8 9 11 12 13 15
Wind_Direction
315 314 314 314 314 314 315 315 318 318 317 312 305 303 302 304 305 304 301 297 295 294
312 312 312 312 313 313 314 316 317 318 316 311 306 302 298 302 302 302 299 299 296 295
310 311 311 311 311 312 313 314 315 317 314 309 305 300 298 298 303 304 299 298 299 297
310 310 311 311 311 312 313 316 316 317 313 310 305 301 297 299 302 304 303 302 301 300
309 310 310 310 311 312 313 316 316 318 314 311 305 302 302 302 304 304 305 305 305 306
307 308 309 309 310 312 314 315 316 318 313 310 306 305 306 305 307 310 311 313 311 312
305 306 308 309 310 312 313 313 315 315 311 307 305 308 312 317 319 317 320 323 324 322
303 303 305 306 307 309 311 313 311 311 310 308 309 312 317 320 322 324 329 335 340 343
299 300 301 302 304 305 309 309 309 312 312 312 311 313 319 324 331 332 342 351 355 0
298 301 302 301 300 301 303 302 302 311 319 316 319 330 335 341 342 343 353 356 1 8
301 301 299 295 293 291 291 293 296 321 333 328 333 348 358 9 7 356 357 4 7 13
304 299 297 294 284 277 284 288 318 335 339 348 345 343 3 25 33 29 24 23 26 30
305 291 284 282 278 279 289 321 327 346 354 358 347 3 21 41 55 56 51 45 35 32
333 286 272 261 263 283 326 348 3 18 15 17 17 33 46 43 55 43 58 52 40 32